Location: Tamazert
(32.6352°N, 5.2072°W)
Time: 16:56:12
(UTC+00:00)

Vanguard 3 - Pass Details

Date: 04 October 2022
Orbit: 509 x 3255 km, 33.3° (Epoch: 08 December)

Event Time Altitude Azimuth Distance (km) Brightness Sun altitude
Rises 14:39:34 0° 277° (W) 4,252 11.3 38.6°
Reaches altitude 10° 14:42:18 10° 268° (W) 3,599 11.3 38.1°
Maximum altitude 14:50:55 35° 207° (SSW) 2,971 11.6 36.7°
Drops below altitude 10° 15:04:29 10° 149° (SSE) 5,635 11.6 34.3°
Sets 15:10:09 0° 142° (SE) 6,948 11.9 33.3°
